This demonstration page uses our WeatherBlox Daily Observations layout. Learn more.

40.92945, -100.16068

Hourly Observations for November 27, 2020

Temp ( °F °C ) Dew Point ( °F °C ) Humidity (%) Winds ( mph kmh ) Pressure ( in mb ) Visibility ( mi km ) Precip ( " mm )
12:15 am 00:15 Partly Cloudy 29 -1.7 26 -3.2 90 90 W 6 9 30.29 1026 10 16.0934 0 0
12:35 am 00:35 Partly Cloudy 28 -2.1 25 -3.7 89 89 WNW 7 11 30.3 1026 10 16.0934 0 0
12:55 am 00:55 Clear 28 -2.5 25 -4 90 90 NW 8 13 30.31 1027 10 16.0934 0 0
1:15 am 01:15 Clear 26 -3.3 24 -4.5 92 92 NW 6 9 30.32 1027 10 16.0934 0 0
1:35 am 01:35 Clear 26 -3.5 23 -4.8 91 91 NNW 3 6 30.32 1027 10 16.0934 0 0
1:55 am 01:55 Clear 25 -4 23 -5.2 91 91 W 5 7 30.34 1027 10 16.0934 0 0
2:15 am 02:15 Clear 24 -4.2 22 -5.3 92 92 W 6 9 30.34 1027 10 16.0934 0 0
2:35 am 02:35 Clear 25 -3.8 22 -5.3 89 89 W 7 11 30.35 1028 10 16.0934 0 0
2:55 am 02:55 Clear 24 -4.3 22 -5.6 91 91 WNW 5 7 30.35 1028 10 16.0934 0 0
3:15 am 03:15 Clear 24 -4.5 22 -5.7 91 91 W 7 11 30.36 1028 10 16.0934 0 0
3:35 am 03:35 Clear 24 -4.5 22 -5.5 93 93 WNW 7 11 30.37 1029 10 16.0934 0 0
3:55 am 03:55 Clear 24 -4.7 22 -5.8 92 92 W 6 9 30.38 1029 10 16.0934 0 0
4:15 am 04:15 Clear 23 -5.1 21 -6.2 92 92 W 5 7 30.38 1029 10 16.0934 0 0
4:35 am 04:35 Clear 22 -5.5 20 -6.5 93 93 W 7 11 30.37 1029 10 16.0934 0 0
4:55 am 04:55 Clear 24 -4.4 22 -5.7 91 91 W 8 13 30.37 1029 10 16.0934 0 0
5:15 am 05:15 Clear 23 -5.1 20 -6.5 90 90 WNW 6 9 30.38 1029 10 16.0934 0 0
5:35 am 05:35 Clear 22 -5.7 19 -7 91 91 WNW 6 9 30.4 1029 10 16.0934 0 0
5:55 am 05:55 Clear 22 -5.8 19 -7.1 91 91 NW 7 11 30.4 1029 10 16.0934 0 0
6:15 am 06:15 Clear 20 -6.5 18 -7.6 92 92 NW 3 6 30.41 1030 10 16.0934 0 0
6:35 am 06:35 Partly Cloudy 20 -6.5 18 -7.6 92 92 NW 5 7 30.41 1030 10 16.0934 0 0
6:55 am 06:55 Clear 21 -6.1 19 -7.2 92 92 WNW 3 6 30.42 1030 10 16.0934 0 0
7:15 am 07:15 Partly Cloudy 23 -5.1 20 -6.4 91 91 WNW 6 9 30.41 1030 10 16.0934 0 0
7:35 am 07:35 Clear 23 -5.1 21 -6.3 91 91 WNW 7 11 30.42 1030 10 16.0934 0 0
7:55 am 07:55 Sunny 22 -5.4 20 -6.6 91 91 WNW 7 11 30.42 1030 10 16.0934 0 0
8:15 am 08:15 Sunny 22 -5.4 20 -6.8 90 90 WNW 6 9 30.42 1030 10 16.0934 0 0
8:35 am 08:35 Sunny 25 -4.1 21 -5.9 87 87 WNW 8 13 30.42 1030 10 16.0934 0 0
8:55 am 08:55 Sunny 26 -3.6 22 -5.5 87 87 WNW 8 13 30.42 1030 10 16.0934 0 0
9:15 am 09:15 Sunny 28 -2.2 24 -4.4 85 85 WNW 9 15 30.41 1030 10 16.0934 0 0
9:35 am 09:35 Sunny 30 -1 26 -3.5 83 83 WNW 8 13 30.4 1029 10 16.0934 0 0
9:55 am 09:55 Sunny 32 0.1 27 -2.7 82 82 WNW 9 15 30.4 1029 10 16.0934 0 0
10:15 am 10:15 Sunny 34 1.1 28 -2.4 78 78 WNW 12 19 30.39 1029 10 16.0934 0 0
10:35 am 10:35 Sunny 36 2.2 29 -1.7 76 76 WNW 8 13 30.38 1029 10 16.0934 0 0
10:55 am 10:55 Sunny 38 3.1 29 -1.4 73 73 W 8 13 30.37 1028 10 16.0934 0 0
11:15 am 11:15 Sunny 40 4.4 30 -1.3 67 67 WNW 9 15 30.35 1028 10 16.0934 0 0
11:35 am 11:35 Sunny 42 5.4 30 -1.2 63 63 WNW 7 11 30.33 1027 10 16.0934 0 0
11:55 am 11:55 Sunny 44 6.5 30 -1.3 58 58 WNW 6 9 30.31 1027 10 16.0934 0 0
12:15 pm 12:15 Sunny 46 7.6 29 -1.7 52 52 WSW 6 9 30.29 1026 10 16.0934 0 0
12:35 pm 12:35 Sunny 46 8 28 -2.2 49 49 W 6 9 30.29 1026 10 16.0934 0 0
12:55 pm 12:55 Sunny 47 8.6 27 -2.9 45 45 W 8 13 30.28 1026 10 16.0934 0 0
1:15 pm 13:15 Sunny 48 8.9 25 -3.9 41 41 WNW 6 9 30.27 1025 10 16.0934 0 0
1:35 pm 13:35 Sunny 49 9.3 24 -4.4 38 38 SW 3 6 30.26 1025 10 16.0934 0 0
1:55 pm 13:55 Sunny 49 9.7 25 -4.1 38 38 W 3 6 30.24 1024 10 16.0934 0 0
2:15 pm 14:15 Sunny 50 10 24 -4.3 37 37 WSW 7 11 30.22 1023 10 16.0934 0 0
2:35 pm 14:35 Sunny 50 10 24 -4.7 35 35 WSW 7 11 30.22 1023 10 16.0934 0 0
2:55 pm 14:55 Sunny 51 10.4 21 -5.9 32 32 WSW 7 11 30.21 1023 10 16.0934 0 0
3:15 pm 15:15 Sunny 51 10.7 20 -6.9 29 29 W 12 19 30.2 1023 10 16.0934 0 0
3:35 pm 15:35 Sunny 51 10.5 20 -6.6 30 30 W 8 13 30.21 1023 10 16.0934 0 0
3:55 pm 15:55 Sunny 51 10.3 19 -7.1 29 29 W 8 13 30.2 1023 10 16.0934 0 0
4:15 pm 16:15 Sunny 50 10 20 -6.7 30 30 W 6 9 30.2 1023 10 16.0934 0 0
4:35 pm 16:35 Sunny 48 9 20 -6.8 32 32 W 7 11 30.21 1023 10 16.0934 0 0
4:55 pm 16:55 Sunny 45 7.3 19 -7.5 34 34 WSW 6 9 30.23 1024 10 16.0934 0 0
5:15 pm 17:15 Clear 42 5.4 18 -7.8 38 38 WSW 5 7 30.23 1024 10 16.0934 0 0
5:35 pm 17:35 Clear 40 4.7 18 -7.8 40 40 WSW 5 7 30.25 1024 10 16.0934 0 0
5:55 pm 17:55 Clear 36 2.4 18 -7.8 47 47 SW 8 13 30.27 1025 10 16.0934 0 0
6:15 pm 18:15 Clear 36 2.4 18 -8 47 47 SW 7 11 30.26 1025 10 16.0934 0 0
6:35 pm 18:35 Clear 34 1.3 18 -7.8 51 51 SW 8 13 30.28 1026 10 16.0934 0 0
6:55 pm 18:55 Clear 34 0.9 18 -7.9 52 52 WSW 6 9 30.29 1026 10 16.0934 0 0
7:15 pm 19:15 Clear 32 0 18 -7.6 57 57 SW 5 7 30.3 1026 10 16.0934 0 0
7:35 pm 19:35 Clear 32 -0.2 19 -7.2 60 60 SW 6 9 30.3 1026 10 16.0934 0 0
7:55 pm 19:55 Clear 32 0 19 -7.3 58 58 SW 7 11 30.29 1026 10 16.0934 0 0
8:15 pm 20:15 Clear 33 0.6 19 -7 57 57 SW 9 15 30.28 1025 10 16.0934 0 0
8:35 pm 20:35 Clear 33 0.5 20 -6.5 60 60 SW 8 13 30.28 1025 10 16.0934 0 0
8:55 pm 20:55 Clear 33 0.5 21 -6.2 61 61 SW 7 11 30.28 1025 10 16.0934 0 0
9:15 pm 21:15 Clear 34 1.1 21 -6 60 60 SW 9 15 30.28 1025 10 16.0934 0 0
9:35 pm 21:35 Clear 33 0.3 21 -6.2 62 62 SW 8 13 30.28 1026 10 16.0934 0 0
9:55 pm 21:55 Clear 31 -0.4 20 -6.6 63 63 SW 8 13 30.29 1026 10 16.0934 0 0
10:15 pm 22:15 Clear 31 -0.3 20 -6.4 64 64 SW 8 13 30.29 1026 10 16.0934 0 0
10:35 pm 22:35 Clear 33 0.5 21 -6.3 61 61 SW 8 13 30.28 1025 10 16.0934 0 0
10:55 pm 22:55 Clear 32 0 21 -6.3 63 63 SW 5 7 30.28 1025 10 16.0934 0 0
11:15 pm 23:15 Clear 32 0.1 20 -6.5 62 62 SW 7 11 30.28 1025 10 16.0934 0 0
11:35 pm 23:35 Clear 33 0.8 22 -5.5 63 63 SW 7 11 30.27 1025 10 16.0934 0 0
11:55 pm 23:55 Clear 33 0.5 21 -6.2 61 61 Calm 30.27 1025 10 16.0934 0 0

Powered by AerisWeather